#timestamp,LO_Frequency,Hit,StdDev 
1552392015.5,286047004.8,N
1552392035.3,286047005.3,N
1552392055.2,286047005.9,N
1552392075.0,286047005.3,N
1552392075.9,286047005.3,N
1552392095.7,286047006.8,Y
1552392115.6,286047002.5,P
1552392135.4,286047000.3,N
1552392155.3,286046999.6,N
1552392175.1,286046995.3,N
1552392195.8,286046994.0,N
1552392215.7,286046992.6,N
1552392235.5,286046989.2,N
1552392255.3,286046985.7,N
1552392275.2,286046986.6,N
1552392295.0,286046984.7,N
1552392295.9,286046984.7,N
1552392315.8,286046983.0,N
1552392335.6,286046981.4,N
1552392355.4,286046980.1,N
1552392375.3,286046977.5,N
1552392395.1,286046976.6,N
1552392415.9,286046975.3,N
1552392435.7,286046975.2,N
1552392455.5,286046972.9,N
1552392475.4,286046970.9,Y
1552392495.2,286046982.2,P
1552392515.0,286046983.7,P
1552392516.0,286046983.7,P
1552392535.8,286046986.1,Y
1552392555.6,286047000.3,P
1552392575.5,286047000.4,N
1552392595.3,286047000.8,N
1552392615.1,286046998.2,N
1552392635.9,286046996.5,N
1552392655.7,286046997.3,N
1552392675.6,286046999.5,N
1552392695.4,286046997.2,N
1552392715.2,286046995.2,N
1552392735.1,286046994.1,N
1552392736.0,286046994.1,N
1552392755.8,286046992.0,N
1552392775.6,286046991.0,N
1552392795.5,286046990.9,N
1552392815.3,286046992.7,N
1552392835.2,286046990.3,N
1552392855.9,286046991.4,N
1552392875.7,286046988.9,N
1552392895.6,286046991.0,N
1552392915.4,286046990.4,N
1552392935.2,286046990.4,N
1552392955.1,286046990.5,N
1552392956.0,286046990.5,N
1552392975.8,286046990.5,N
1552392995.7,286046993.1,N
1552393015.5,286046992.6,N
1552393035.3,286046993.8,N
1552393055.2,286046996.3,N
1552393075.0,286046995.7,N
1552393075.9,286046995.7,N
1552393095.8,286046997.8,N
1552393115.6,286046998.3,N
1552393135.4,286047001.2,N
1552393155.3,286047001.2,N
1552393175.1,286046999.5,N
1552393195.8,286046997.3,N
1552393215.7,286046997.4,N
1552393235.5,286046997.8,N
1552393255.4,286046995.6,N
1552393275.2,286046994.3,N
1552393295.0,286046993.1,N
1552393295.9,286046993.1,N
1552393315.8,286046990.1,N
1552393335.6,286046991.4,N
1552393355.4,286046990.5,N
1552393375.3,286046990.3,N
1552393395.1,286046991.1,N
1552393415.9,286046989.6,N
1552393435.7,286046989.7,N
1552393455.5,286046990.0,N
1552393475.4,286046987.3,Y
1552393495.2,286046993.8,P
1552393515.1,286046994.5,P
1552393516.0,286046994.5,P
1552393535.8,286046992.2,Y
1552393555.6,286046996.8,P
1552393575.5,286046999.5,N
1552393595.3,286046997.2,N
1552393615.1,286046997.7,N
1552393635.9,286046996.8,N
1552393655.7,286046995.6,N
1552393675.6,286046995.8,N
1552393695.4,286046996.3,N
1552393715.2,286046993.8,Y
1552393735.1,286046997.3,P
1552393736.0,286046997.3,P
1552393755.8,286046997.4,P
1552393775.7,286046995.6,Y
1552393795.5,286046996.5,P
1552393815.3,286046999.2,N
1552393835.2,286046999.5,N
1552393855.0,286046998.6,N
1552393855.9,286046998.6,N
1552393875.8,286047002.7,N
1552393895.6,286046999.8,N
1552393915.4,286047001.2,N
1552393935.3,286046996.5,N
1552393955.1,286046999.5,N
1552393975.8,286046996.8,N
1552393995.7,286046996.8,N
1552394015.5,286046998.8,N
1552394035.4,286047000.6,N
1552394055.2,286046998.3,N
1552394075.0,286046999.1,N
1552394075.9,286046999.1,N
1552394095.8,286046996.7,N
1552394115.6,286046998.9,N
1552394135.5,286046999.6,N
1552394155.3,286046998.8,N
1552394175.1,286046998.7,N
1552394195.9,286046999.2,N
1552394215.7,286046999.2,N
1552394265.6,286046997.9,E
1552394275.5,286046997.4,N
1552394295.3,286046996.7,P
1552394315.2,286046999.6,N
1552394335.9,286047001.2,N
1552394355.7,286046998.8,N
1552394375.6,286046996.5,N
1552394395.4,286046997.6,N
1552394415.3,286046996.8,N
1552394435.1,286046999.6,N
1552394436.0,286046999.6,N
1552394455.8,286046997.0,N
1552394475.7,286046997.8,N
1552394495.5,286046995.1,Y
1552394515.3,286046995.0,P
1552394535.2,286046995.3,N
1552394555.0,286046995.6,P
1552394555.9,286046995.6,Y
1552394575.8,286047000.3,P
1552394595.6,286047000.2,N
1552394615.4,286047000.0,N
1552394635.3,286047000.1,N
1552394655.1,286047000.9,N
1552394675.9,286047000.1,N
1552394695.7,286047002.3,N
1552394715.5,286046999.9,N
1552394735.4,286046999.9,N
1552394755.2,286047001.8,N
1552394775.0,286047001.6,N
1552394776.0,286047001.6,N
1552394825.8,286047001.0,E
1552394835.7,286046998.8,N
1552394855.6,286046996.6,P
1552394875.4,286046999.4,N
1552394895.3,286046999.6,N
1552394915.1,286046996.5,N
1552394916.0,286046996.5,N
1552394935.8,286046996.7,N
1552394955.7,286046997.2,N
1552394975.5,286046997.7,N
1552394995.3,286046997.1,N
1552395015.2,286046996.6,N
1552395035.0,286046999.6,N
1552395035.9,286046999.6,N
1552395055.8,286046999.2,N
1552395075.6,286046999.3,N
1552395095.4,286046998.3,N
1552395115.3,286047000.0,N
1552395135.1,286046998.6,N
1552395155.9,286047001.2,N
1552395175.7,286046998.5,N
1552395195.5,286047001.1,N
1552395215.4,286047000.5,N
1552395235.2,286047001.4,N
1552395255.0,286047002.5,N
1552395255.9,286047002.5,N
1552395275.8,286047002.6,N
1552395295.6,286047002.4,N
1552395315.5,286047000.2,N
1552395335.3,286047000.3,N
1552395355.1,286047000.6,N
1552395375.9,286047002.8,N
1552395395.7,286047000.6,N
1552395415.6,286047000.5,N
1552395435.4,286046999.8,N
1552395455.2,286047002.4,N
1552395475.1,286047001.2,N
1552395476.0,286047001.2,N
1552395495.8,286046998.2,N
1552395515.6,286047001.2,N
1552395535.5,286047001.2,N
1552395555.3,286046998.3,N
1552395575.2,286047000.7,N
1552395595.9,286047003.8,N
